Home > Time Zones > World Clock > Weather > U.S.A. > Erie > Past weeks

Flag for U.S.A. Weather past 2 weeks in Erie, Pennsylvania, U.S.A.

Now
51 °F

Light rain. Fog.


Feels Like: 47 °F
Forecast: 49 / 54 °F
Wind: 13 mph from South

Location: Erie International Airport

Current Time: Oct 20, 2014 at 11:50:40 PM

Latest Report: Oct 20, 2014 at 10:51 PM


Visibility: 6 mi

Pressure: 29.82 "Hg

Humidity: 86%

Dew point: 47 °F

Location of ErieLocation

Historic Weather in Erie — Graph

°F

Erie temperature yesterday

Maximum temperature yesterday: 49 °F (at 2:51 PM)
Minimum temperature yesterday: 42 °F (at 8:51 PM)
Average temperature yesterday: 45 °F

Past Weeks' High & Low Weather Summary

 TemperatureHumidityPressure
High81 °F (Oct 14, 4:51 PM)94% (Oct 16, 2:59 AM)30.27 "Hg (Oct 16, 2:59 AM)
Low38 °F (Oct 12, 2:51 AM)38% (Oct 12, 1:51 PM)29.52 "Hg (Oct 17, 2:51 PM)
Average55 °F69%29.90 "Hg
* Reported Oct 5 9:51 PM — Oct 20 9:51 PM, Erie, Weather by CustomWeather, © 2014

Note: Actual official high and low records may vary slightly from our data, if they occured in-between our weather recording intervals... More about our weather records

Advertising

Erie weather history for previous 24 hours

 ConditionsComfort  
Time TempWeatherWind HumidityBarometerVisibility
9:51 PM
Oct 20
52 °FOvercast.14 mph83%29.83 "Hg10 mi
8:51 PM52 °FLight rain. Overcast.14 mph80%29.83 "Hg10 mi
7:51 PM52 °FLight rain. Overcast.10 mph77%29.83 "Hg10 mi
6:51 PM54 °FLight rain. Overcast.13 mph67%29.83 "Hg10 mi
5:51 PM55 °FOvercast.14 mph67%29.82 "Hg10 mi
4:51 PM55 °FLight rain. Overcast.17 mph69%29.81 "Hg10 mi
3:51 PM57 °FOvercast.13 mph62%29.82 "Hg10 mi
2:51 PM56 °FOvercast.13 mph60%29.84 "Hg10 mi
1:51 PM55 °FOvercast.10 mph62%29.85 "Hg10 mi
12:51 PM55 °FOvercast.16 mph59%29.88 "Hg10 mi
11:51 AM55 °FOvercast.15 mph57%29.89 "Hg10 mi
10:51 AM51 °FOvercast.13 mph63%29.91 "Hg10 mi
9:51 AM50 °FOvercast.12 mph63%29.93 "Hg10 mi
8:51 AM48 °FCloudy.13 mph66%29.93 "Hg10 mi
7:51 AM48 °FPassing clouds.12 mph63%29.94 "Hg10 mi
6:51 AM46 °FPassing clouds.10 mph66%29.95 "Hg10 mi
5:51 AM46 °FClear.9 mph63%29.96 "Hg10 mi
4:51 AM46 °FClear.8 mph63%29.98 "Hg10 mi
3:51 AM47 °FPassing clouds.8 mph61%29.99 "Hg10 mi
2:51 AM46 °FOvercast.7 mph63%30.01 "Hg10 mi
1:51 AM45 °FClear.6 mph68%30.02 "Hg10 mi
12:51 AM44 °FClear.8 mph71%30.03 "Hg10 mi
Weather by CustomWeather, © 2014

See weather overviewHow to use our weather pages